[[{"header":{"parameterUnit":"m.s-1","parameterCategory":2,"la1":30.2991,"la2":30.254,"lo1":-89.0895,"lo2":-89.0444,"dy":0.0017,"dx":0.0017,"nx":28,"ny":28,"refTime":"2025-07-22T21:00:00:Z","depth":"0","parameterNumber":2,"parameterNumberName":"U-component_of_CURRENTS"},"data":[0,0,0,0,0,0,0,0,0,0,0,0,0,0,0,0,0,0,0,0,0,0,0,0,0,0,0,0,0,0,0,0,0,0,0,0,0,0,0,0,0,0,0,0,0,0,0,0,0,0,0,0,0,0,0,0,0,0,-0.2853,-0.2853,0,-0.2812,-0.2811,-0.2811,-0.2752,-0.2751,-0.275,-0.2749,-0.2709,-0.2709,-0.2709,0,0,0,0,0,0,0,0,0,0,0,0,0,-0.2887,-0.2887,-0.2853,-0.2853,-0.2852,-0.2812,-0.2811,-0.2811,-0.2752,-0.2751,-0.275,-0.2749,-0.2709,-0.2709,-0.2709,0,0,0,0,0,0,0,0,0,0,0,0,0,-0.2862,-0.2886,-0.2853,-0.2818,-0.2814,-0.2812,-0.2811,-0.2811,-0.2752,-0.2751,-0.2749,-0.2748,-0.2709,-0.2709,-0.2709,-0.2739,0,0,-0.2709,-0.2709,0,0,0,0,0,0,0,0,-0.2863,-0.2861,-0.2824,-0.282,-0.2816,-0.2785,-0.2809,-0.2787,-0.2753,-0.2776,-0.2749,-0.2747,-0.2736,-0.2734,-0.2729,-0.2737,-0.2735,-0.2709,-0.2709,-0.2709,-0.2709,0,0,0,0,0,0,0,-0.2865,-0.2862,-0.2837,-0.2823,-0.2819,-0.2806,-0.2801,-0.2804,-0.2765,-0.2774,-0.2769,-0.2765,-0.2734,-0.273,-0.2728,-0.2735,-0.2709,-0.2709,-0.2708,-0.2708,-0.2772,-0.2774,0,0,0,0,0,0,-0.2871,-0.2864,-0.2838,-0.2836,-0.2836,-0.2807,-0.2801,-0.2797,-0.2765,-0.2759,-0.2767,-0.2763,-0.2731,-0.2728,-0.2726,-0.2744,-0.2709,-0.2708,-0.2708,-0.277,-0.2772,-0.2774,0,0,0,0,0,0,-0.2872,-0.287,-0.284,-0.2849,-0.2844,-0.2808,-0.2804,-0.2797,-0.278,-0.276,-0.2753,-0.2755,-0.2729,-0.2727,-0.2721,-0.2742,-0.2708,-0.2708,-0.2768,-0.2771,-0.2773,-0.2788,0,0,0,0,0,0,-0.2874,-0.287,-0.2864,-0.2849,-0.2844,-0.282,-0.2805,-0.2797,-0.2781,-0.2775,-0.2748,-0.2743,-0.2728,-0.2721,-0.2721,-0.2741,-0.2708,-0.2766,-0.2769,-0.2772,-0.2786,-0.2791,-0.2796,0,0,0,0,0,-0.2875,-0.2861,-0.2864,-0.286,-0.2838,-0.2819,-0.2815,-0.2784,-0.2782,-0.2766,-0.2759,-0.2744,-0.2743,-0.2722,-0.2721,-0.2742,-0.2764,-0.2768,-0.2772,-0.2783,-0.279,-0.2796,0,0,0,0,0,0,-0.2865,-0.2854,-0.2856,-0.2838,-0.2827,-0.2808,-0.2788,-0.2787,-0.2771,-0.2766,-0.2753,-0.2748,-0.2762,-0.2754,-0.2731,-0.2776,-0.2757,-0.2761,-0.2766,-0.2773,-0.2778,-0.2791,-0.2708,0,0,0,0,0,-0.2867,-0.2853,-0.2847,-0.2831,-0.2825,-0.2815,-0.2804,-0.2792,-0.278,-0.277,-0.2755,-0.2759,-0.2783,-0.2775,-0.2786,-0.2795,-0.2808,-0.2816,-0.2821,-0.2825,-0.2839,-0.2876,-0.2885,-0.2787,-0.2787,-0.2787,0,0,-0.2859,-0.285,-0.2842,-0.2828,-0.2816,-0.2809,-0.2802,-0.2783,-0.2787,-0.2772,-0.2762,-0.2776,-0.2794,-0.281,-0.2816,-0.2797,-0.2861,-0.283,-0.2833,-0.2846,-0.2881,-0.289,-0.2898,-0.279,-0.279,-0.2789,0,0,-0.2828,-0.283,-0.2806,-0.2804,-0.2791,-0.2793,-0.2791,-0.2778,-0.2776,-0.2782,-0.2791,-0.2823,-0.2818,-0.285,-0.2867,-0.2915,-0.2896,-0.2908,-0.2928,-0.2963,-0.2971,-0.2978,-0.3003,-0.3012,-0.2898,-0.2898,-0.2898,0,-0.2816,-0.2792,-0.2795,-0.278,-0.2777,-0.279,-0.2776,-0.2789,-0.2777,-0.2795,-0.2777,-0.284,-0.2854,-0.2914,-0.2929,-0.2929,-0.2926,-0.2895,-0.2968,-0.2975,-0.2982,-0.3006,-0.3016,-0.2899,-0.2899,-0.2899,-0.2899,0,-0.277,-0.2759,-0.2745,-0.2738,-0.2743,-0.2728,-0.2758,-0.2769,-0.2784,-0.2805,-0.2857,-0.2885,-0.2922,-0.2942,-0.2947,-0.3012,-0.2988,-0.2976,-0.2945,-0.2992,-0.3015,-0.3025,-0.2901,-0.2901,-0.29,-0.29,0,0,-0.2714,-0.2711,-0.2707,-0.2702,-0.2721,-0.2716,-0.2753,-0.2785,-0.2814,-0.284,-0.288,-0.2955,-0.2975,-0.3001,-0.3019,-0.3053,-0.311,-0.3024,-0.3025,-0.3036,-0.3164,-0.3031,-0.3029,-0.3085,-0.3087,-0.3089,-0.3157,0,-0.2668,-0.2632,-0.2657,-0.2643,-0.2624,-0.2681,-0.2713,-0.2762,-0.2805,-0.2848,-0.2931,-0.2972,-0.2996,-0.301,-0.3057,-0.3105,-0.3137,-0.3093,-0.3127,-0.3129,-0.2995,-0.3037,-0.2808,-0.2838,-0.3166,-0.3168,-0.3169,0,-0.2594,-0.259,-0.2555,-0.259,-0.2592,-0.2605,-0.2668,-0.2698,-0.2798,-0.2836,-0.2913,-0.2966,-0.3065,-0.3054,-0.3172,-0.3127,-0.3152,-0.318,-0.3183,-0.3062,-0.3015,-0.2847,-0.2844,-0.2641,-0.3184,-0.3183,-0.3182,0,-0.2498,-0.2514,-0.2483,-0.249,-0.2537,-0.2558,-0.2596,-0.2686,-0.2732,-0.2823,-0.2876,-0.298,-0.3042,-0.3102,-0.3188,-0.3169,-0.3287,-0.3271,-0.3181,-0.3172,-0.299,-0.296,-0.2784,-0.3341,-0.334,-0.334,-0.334,0,-0.2396,-0.238,-0.244,-0.2413,-0.2433,-0.2487,-0.2521,-0.2583,-0.2681,-0.2756,-0.2854,-0.2936,-0.3052,-0.3142,-0.3192,-0.3218,-0.3297,-0.3197,-0.3183,-0.2987,-0.2958,-0.2783,-0.2821,-0.3343,-0.3342,-0.3342,-0.3341,0,-0.2256,-0.2283,-0.2271,-0.2336,-0.2365,-0.2374,-0.2481,-0.2523,-0.2614,-0.2718,-0.2754,-0.2917,-0.3023,-0.3122,-0.323,-0.3214,-0.316,-0.3237,-0.2994,-0.2947,-0.263,-0.2682,-0.2716,-0.2663,-0.3139,-0.3137,-0.3134,0,-0.2161,-0.2131,-0.2206,-0.2233,-0.2259,-0.2305,-0.2354,-0.2463,-0.2535,-0.2718,-0.2778,-0.2905,-0.2997,-0.3088,-0.3058,-0.308,-0.3075,-0.2875,-0.2805,-0.2577,-0.2627,-0.2721,-0.2683,-0.2583,-0.2577,-0.2571,-0.2567,0,-0.2006,-0.2043,-0.2053,-0.2126,-0.2177,-0.2246,-0.2334,-0.2387,-0.254,-0.2639,-0.2786,-0.2858,-0.2908,-0.281,-0.279,-0.2783,-0.2714,-0.2759,-0.2589,-0.2234,-0.2268,-0.2216,-0.2582,-0.2518,-0.2523,-0.2526,-0.2529,-0.2531,-0.1912,-0.1914,-0.196,-0.2032,-0.2104,-0.2194,-0.2218,-0.2348,-0.2448,-0.258,-0.2712,-0.2734,-0.2577,-0.2496,-0.2435,-0.2079,-0.2399,-0.1982,-0.2088,-0.2219,-0.2087,-0.2336,-0.2206,-0.2209,-0.2211,-0.2214,-0.2216,0,-0.1807,-0.1837,-0.1885,-0.1972,-0.2028,-0.2101,-0.2215,-0.2235,-0.2332,-0.2419,-0.2511,-0.2305,-0.2088,-0.1885,-0.1512,-0.1383,-0.1416,-0.1369,-0.1402,-0.1415,-0.1623,-0.1497,-0.1124,-0.1124,-0.1124,-0.1124,-0.1125,-0.1125,-0.1752,-0.1763,-0.1812,-0.1882,-0.1944,-0.1969,-0.2011,-0.2058,-0.2093,-0.2011,-0.189,-0.1853,-0.1502,-0.1272,-0.0881,-0.0847,-0.0851,-0.0914,-0.1042,-0.1062,-0.1124,-0.1184,-0.1059,-0.06,-0.06,-0.0682,-0.0683,-0.0683]},{"header":{"parameterUnit":"m.s-1","parameterCategory":2,"la1":30.2991,"la2":30.254,"lo1":-89.0895,"lo2":-89.0444,"dy":0.0017,"dx":0.0017,"nx":28,"ny":28,"refTime":"2025-07-22T21:00:00:Z","depth":"0","parameterNumber":3,"parameterNumberName":"V-component_of_CURRENTS"},"data":[0,0,0,0,0,0,0,0,0,0,0,0,0,0,0,0,0,0,0,0,0,0,0,0,0,0,0,0,0,0,0,0,0,0,0,0,0,0,0,0,0,0,0,0,0,0,0,0,0,0,0,0,0,0,0,0,0,0,-0.1067,-0.1067,0,-0.106,-0.106,-0.106,-0.0981,-0.0979,-0.0977,-0.0976,-0.0857,-0.0856,-0.0855,0,0,0,0,0,0,0,0,0,0,0,0,0,-0.1029,-0.103,-0.1067,-0.1067,-0.1067,-0.106,-0.106,-0.106,-0.0982,-0.0979,-0.0977,-0.0975,-0.0858,-0.0856,-0.0855,0,0,0,0,0,0,0,0,0,0,0,0,0,-0.1035,-0.103,-0.1067,-0.1028,-0.1024,-0.106,-0.106,-0.106,-0.0982,-0.0979,-0.0976,-0.0974,-0.0858,-0.0856,-0.0854,-0.0899,0,0,-0.0848,-0.0847,0,0,0,0,0,0,0,0,-0.1035,-0.1037,-0.1033,-0.103,-0.1026,-0.1019,-0.1003,-0.1001,-0.0983,-0.0997,-0.0976,-0.0972,-0.0904,-0.0898,-0.0904,-0.0894,-0.0889,-0.0848,-0.0847,-0.0846,-0.0845,0,0,0,0,0,0,0,-0.1035,-0.1037,-0.1063,-0.1034,-0.1029,-0.1016,-0.1014,-0.1003,-0.0964,-0.0996,-0.099,-0.0992,-0.0901,-0.0906,-0.09,-0.0887,-0.0848,-0.0846,-0.0845,-0.0844,-0.0857,-0.0858,0,0,0,0,0,0,-0.104,-0.1037,-0.1064,-0.1063,-0.1025,-0.1019,-0.1016,-0.1024,-0.0966,-0.0956,-0.0994,-0.0988,-0.0911,-0.0902,-0.0895,-0.0937,-0.0846,-0.0844,-0.0843,-0.0855,-0.0857,-0.0859,0,0,0,0,0,0,-0.1039,-0.1043,-0.1064,-0.105,-0.1051,-0.1023,-0.1032,-0.1025,-0.102,-0.0967,-0.0953,-0.0994,-0.0908,-0.0898,-0.09,-0.0932,-0.0843,-0.0841,-0.0854,-0.0856,-0.0858,-0.1025,0,0,0,0,0,0,-0.1038,-0.1043,-0.1055,-0.105,-0.1052,-0.1093,-0.1035,-0.1027,-0.1026,-0.1018,-0.0963,-0.095,-0.0905,-0.0904,-0.0898,-0.0927,-0.084,-0.0852,-0.0855,-0.0857,-0.1018,-0.1033,-0.1046,0,0,0,0,0,-0.1037,-0.1067,-0.1055,-0.1059,-0.1068,-0.1095,-0.1096,-0.1064,-0.1029,-0.1045,-0.1012,-0.0951,-0.0916,-0.0905,-0.0897,-0.0927,-0.085,-0.0854,-0.0857,-0.1012,-0.103,-0.1046,0,0,0,0,0,0,-0.1057,-0.1062,-0.1049,-0.1078,-0.1089,-0.1082,-0.1094,-0.1075,-0.1065,-0.1051,-0.0988,-0.0976,-0.0983,-0.0936,-0.0925,-0.0935,-0.0866,-0.0869,-0.0986,-0.1003,-0.1017,-0.1075,-0.0838,0,0,0,0,0,-0.1071,-0.1092,-0.1094,-0.112,-0.1125,-0.1112,-0.1119,-0.1105,-0.1094,-0.1086,-0.1052,-0.1013,-0.0998,-0.0985,-0.0961,-0.0984,-0.0956,-0.099,-0.1004,-0.1017,-0.1057,-0.1071,-0.1091,-0.0871,-0.0871,-0.087,0,0,-0.1085,-0.1093,-0.1103,-0.1126,-0.1127,-0.1173,-0.1108,-0.113,-0.1173,-0.1077,-0.1114,-0.1065,-0.1014,-0.1035,-0.1032,-0.0998,-0.1056,-0.1021,-0.1033,-0.1067,-0.1077,-0.1099,-0.1118,-0.0873,-0.0873,-0.0872,0,0,-0.1142,-0.1133,-0.1175,-0.1197,-0.1214,-0.1216,-0.1225,-0.1228,-0.1227,-0.1263,-0.12,-0.1196,-0.1159,-0.1152,-0.1137,-0.1221,-0.1131,-0.1174,-0.1299,-0.1311,-0.1331,-0.1347,-0.1311,-0.1324,-0.1182,-0.1182,-0.1183,0,-0.1158,-0.122,-0.1194,-0.125,-0.1287,-0.1242,-0.1315,-0.132,-0.1326,-0.135,-0.1289,-0.1285,-0.1232,-0.1287,-0.1301,-0.126,-0.1223,-0.1241,-0.1334,-0.135,-0.1365,-0.1324,-0.1335,-0.1191,-0.119,-0.1189,-0.1188,0,-0.1252,-0.1309,-0.1338,-0.1398,-0.1432,-0.1485,-0.1496,-0.1523,-0.1505,-0.1509,-0.1547,-0.1493,-0.149,-0.146,-0.1404,-0.1476,-0.14,-0.1353,-0.1301,-0.1398,-0.1346,-0.1356,-0.1203,-0.12,-0.1198,-0.1195,0,0,-0.1267,-0.1385,-0.1396,-0.147,-0.1521,-0.1567,-0.164,-0.1708,-0.176,-0.1747,-0.1816,-0.1796,-0.1745,-0.1726,-0.1652,-0.1661,-0.1706,-0.1551,-0.1548,-0.1533,-0.1693,-0.1552,-0.1547,-0.1664,-0.1667,-0.167,-0.1607,0,-0.1352,-0.1506,-0.1538,-0.169,-0.1771,-0.1782,-0.186,-0.1909,-0.1912,-0.1956,-0.1922,-0.1937,-0.1849,-0.1831,-0.184,-0.1722,-0.1742,-0.1726,-0.1587,-0.1583,-0.1462,-0.1558,-0.1383,-0.1306,-0.1615,-0.1616,-0.1617,0,-0.1415,-0.1534,-0.1697,-0.1864,-0.1897,-0.1979,-0.2096,-0.2155,-0.2194,-0.2188,-0.2206,-0.2144,-0.215,-0.205,-0.1982,-0.1962,-0.1866,-0.1785,-0.1779,-0.1608,-0.1461,-0.1262,-0.1309,-0.1011,-0.163,-0.1629,-0.1628,0,-0.1428,-0.1629,-0.1775,-0.1831,-0.2002,-0.2088,-0.2166,-0.2232,-0.2283,-0.2323,-0.2332,-0.2333,-0.2284,-0.2221,-0.2032,-0.2006,-0.193,-0.1867,-0.1674,-0.1659,-0.1468,-0.1432,-0.1234,-0.1882,-0.1882,-0.1882,-0.1882,0,-0.1481,-0.1596,-0.1806,-0.1887,-0.2086,-0.2157,-0.2309,-0.237,-0.2427,-0.2482,-0.2443,-0.2455,-0.2321,-0.2236,-0.2101,-0.1896,-0.1987,-0.173,-0.1659,-0.1513,-0.1484,-0.1178,-0.1101,-0.1879,-0.188,-0.1881,-0.1881,0,-0.144,-0.1567,-0.1763,-0.2004,-0.209,-0.2219,-0.2404,-0.2489,-0.252,-0.258,-0.2589,-0.2532,-0.2411,-0.2268,-0.2112,-0.1941,-0.1619,-0.1711,-0.152,-0.1429,-0.0955,-0.0896,-0.0767,-0.0636,-0.1494,-0.149,-0.1487,0,-0.142,-0.1522,-0.1833,-0.1975,-0.2096,-0.2294,-0.2417,-0.2523,-0.2588,-0.2618,-0.2638,-0.2548,-0.2482,-0.2192,-0.1891,-0.1649,-0.1494,-0.1311,-0.1261,-0.0931,-0.0815,-0.0823,-0.0725,-0.1053,-0.1047,-0.1042,-0.1038,0,-0.1411,-0.152,-0.1695,-0.2002,-0.2192,-0.2391,-0.2563,-0.2625,-0.2698,-0.2733,-0.2729,-0.2685,-0.2367,-0.2004,-0.1635,-0.1442,-0.1071,-0.1196,-0.092,-0.0529,-0.0467,-0.0301,-0.1059,-0.0992,-0.0997,-0.1,-0.1003,-0.1004,-0.1373,-0.1515,-0.1757,-0.2036,-0.2258,-0.2451,-0.2561,-0.269,-0.2779,-0.2787,-0.2766,-0.2593,-0.2042,-0.1502,-0.128,-0.0552,-0.0758,-0.0315,-0.0292,-0.0346,-0.017,-0.0812,-0.0624,-0.0626,-0.0629,-0.063,-0.0632,0,-0.1317,-0.1521,-0.1786,-0.2111,-0.2311,-0.244,-0.2629,-0.2682,-0.2757,-0.2703,-0.2688,-0.2024,-0.1471,-0.0878,0.0022,0.0362,0.0378,0.0528,0.0585,0.0624,0.0045,0.0126,0.0565,0.0565,0.0565,0.0564,0.0564,0.0564,-0.1295,-0.152,-0.1702,-0.2062,-0.2277,-0.2462,-0.254,-0.2614,-0.2577,-0.2288,-0.1901,-0.1643,-0.0653,0.0336,0.1157,0.1222,0.1411,0.1353,0.1386,0.1073,0.0997,0.0925,0.1027,0.1648,0.1649,0.2016,0.2021,0.2024]}],[{"header":{"parameterUnit":"m.s-1","parameterCategory":2,"la1":30.2991,"la2":30.254,"lo1":-89.0895,"lo2":-89.0444,"dy":0.0017,"dx":0.0017,"nx":28,"ny":28,"refTime":"2025-07-22T21:00:00:Z","depth":"2","parameterNumber":2,"parameterNumberName":"U-component_of_CURRENTS"},"data":[0,0,0,0,0,0,0,0,0,0,0,0,0,0,0,0,0,0,0,0,0,0,0,0,0,0,0,0,0,0,0,0,0,0,0,0,0,0,0,0,0,0,0,0,0,0,0,0,0,0,0,0,0,0,0,0,0,0,-0.2148,-0.215,0,-0.231,-0.2312,-0.2314,-0.2464,-0.2466,-0.2468,-0.2469,-0.266,-0.2663,-0.2667,0,0,0,0,0,0,0,0,0,0,0,0,0,-0.21,-0.2099,-0.2148,-0.215,-0.2152,-0.231,-0.2312,-0.2315,-0.2464,-0.2466,-0.2468,-0.247,-0.2658,-0.2663,-0.2667,0,0,0,0,0,0,0,0,0,0,0,0,0,-0.2179,-0.2099,-0.2148,-0.2244,-0.2254,-0.2309,-0.2312,-0.2315,-0.2464,-0.2466,-0.2469,-0.2471,-0.2657,-0.2662,-0.2667,-0.2651,0,0,-0.2684,-0.2686,0,0,0,0,0,0,0,0,-0.2174,-0.218,-0.2228,-0.2237,-0.2248,-0.2368,-0.2365,-0.2428,-0.2463,-0.2386,-0.2469,-0.2472,-0.2561,-0.2575,-0.2602,-0.266,-0.2668,-0.2684,-0.2687,-0.269,-0.2691,0,0,0,0,0,0,0,-0.2168,-0.2175,-0.2214,-0.2229,-0.2242,-0.2324,-0.2337,-0.2378,-0.246,-0.2393,-0.2404,-0.2418,-0.2568,-0.2597,-0.2608,-0.2671,-0.2684,-0.2689,-0.2692,-0.2694,-0.2735,-0.2733,0,0,0,0,0,0,-0.2133,-0.2168,-0.2209,-0.2219,-0.2214,-0.2322,-0.2337,-0.2329,-0.2459,-0.2481,-0.2415,-0.2424,-0.2587,-0.2602,-0.2615,-0.2618,-0.269,-0.2695,-0.2698,-0.2737,-0.2735,-0.2732,0,0,0,0,0,0,-0.2131,-0.2134,-0.2203,-0.2198,-0.2212,-0.2319,-0.231,-0.233,-0.2378,-0.2476,-0.2499,-0.2443,-0.2589,-0.2608,-0.2673,-0.2626,-0.2697,-0.2702,-0.274,-0.2736,-0.2733,-0.2614,0,0,0,0,0,0,-0.2129,-0.2132,-0.2128,-0.2194,-0.2211,-0.2245,-0.2308,-0.2332,-0.2381,-0.2394,-0.2506,-0.2526,-0.2593,-0.2664,-0.2678,-0.2635,-0.2706,-0.2742,-0.2738,-0.2734,-0.262,-0.2607,-0.2595,0,0,0,0,0,-0.2126,-0.2119,-0.2126,-0.2132,-0.2196,-0.2244,-0.2261,-0.2348,-0.2379,-0.24,-0.2477,-0.2524,-0.2647,-0.2668,-0.2684,-0.2641,-0.2744,-0.2739,-0.2735,-0.2626,-0.2609,-0.2596,0,0,0,0,0,0,-0.2106,-0.2134,-0.2144,-0.2147,-0.2189,-0.2269,-0.2299,-0.234,-0.2415,-0.2441,-0.2521,-0.2545,-0.2584,-0.2623,-0.2643,-0.2637,-0.2692,-0.2691,-0.2604,-0.2589,-0.2577,-0.2586,-0.271,0,0,0,0,0,-0.2087,-0.208,-0.2126,-0.2125,-0.2143,-0.2211,-0.2245,-0.2303,-0.2371,-0.2408,-0.2483,-0.2541,-0.2569,-0.2592,-0.2649,-0.2648,-0.2718,-0.2621,-0.2608,-0.2598,-0.2613,-0.2684,-0.2681,-0.2717,-0.2717,-0.2717,0,0,-0.2076,-0.209,-0.2088,-0.2119,-0.2158,-0.2179,-0.224,-0.2295,-0.2311,-0.2413,-0.2469,-0.2522,-0.2566,-0.2581,-0.2594,-0.261,-0.2618,-0.2592,-0.2582,-0.2605,-0.2679,-0.2677,-0.2674,-0.2714,-0.2714,-0.2715,0,0,-0.2052,-0.206,-0.2052,-0.2079,-0.2134,-0.2174,-0.218,-0.2264,-0.2303,-0.2339,-0.2412,-0.244,-0.2492,-0.2519,-0.2527,-0.247,-0.2565,-0.247,-0.2402,-0.2469,-0.2468,-0.2468,-0.2531,-0.2538,-0.2444,-0.2444,-0.2444,0,-0.2044,-0.2033,-0.2061,-0.2067,-0.2091,-0.2157,-0.2171,-0.2201,-0.2299,-0.2324,-0.2343,-0.2421,-0.245,-0.2454,-0.2422,-0.2442,-0.2511,-0.2455,-0.2456,-0.2457,-0.2459,-0.2525,-0.2534,-0.2438,-0.2439,-0.2439,-0.244,0,-0.2015,-0.2017,-0.2018,-0.2029,-0.2056,-0.2086,-0.2125,-0.2165,-0.2198,-0.2234,-0.2271,-0.2316,-0.2364,-0.2338,-0.2354,-0.2363,-0.2418,-0.2449,-0.2499,-0.2449,-0.2521,-0.2532,-0.2429,-0.2431,-0.2433,-0.2435,0,0,-0.1977,-0.1995,-0.1996,-0.2007,-0.2049,-0.2076,-0.2081,-0.2118,-0.2148,-0.2182,-0.2229,-0.2197,-0.2249,-0.2262,-0.2291,-0.2311,-0.2344,-0.2371,-0.2377,-0.2444,-0.2512,-0.2374,-0.2375,-0.2393,-0.2395,-0.2396,-0.255,0,-0.1955,-0.1957,-0.1969,-0.198,-0.1995,-0.2041,-0.2045,-0.2086,-0.2123,-0.2192,-0.22,-0.2266,-0.2207,-0.2257,-0.2248,-0.2382,-0.2374,-0.2301,-0.2544,-0.2551,-0.2443,-0.2382,-0.2038,-0.213,-0.2562,-0.2564,-0.2565,0,-0.193,-0.1938,-0.1942,-0.1978,-0.1989,-0.1995,-0.2049,-0.2064,-0.2136,-0.2177,-0.2212,-0.2289,-0.2333,-0.2302,-0.2409,-0.2382,-0.2413,-0.247,-0.2478,-0.2407,-0.2434,-0.2254,-0.2137,-0.2586,-0.2584,-0.2583,-0.2581,0,-0.191,-0.1927,-0.1932,-0.1942,-0.198,-0.1987,-0.2007,-0.2059,-0.2116,-0.2207,-0.2315,-0.2345,-0.2445,-0.2481,-0.2541,-0.2518,-0.2683,-0.2678,-0.2562,-0.2556,-0.2336,-0.2305,-0.2711,-0.2711,-0.271,-0.271,-0.2709,0,-0.1892,-0.1898,-0.1923,-0.1927,-0.1942,-0.1972,-0.2006,-0.2039,-0.2154,-0.2245,-0.2321,-0.2422,-0.2503,-0.2607,-0.2607,-0.2617,-0.2726,-0.2547,-0.2577,-0.2278,-0.2241,-0.2704,-0.2701,-0.2716,-0.2714,-0.2713,-0.2712,0,-0.1864,-0.1882,-0.1893,-0.1923,-0.193,-0.1938,-0.2016,-0.2064,-0.2181,-0.233,-0.2399,-0.2551,-0.2653,-0.2712,-0.2809,-0.2718,-0.2747,-0.2704,-0.2337,-0.2315,-0.2563,-0.2553,-0.2619,-0.2615,-0.2611,-0.2609,-0.2607,0,-0.1849,-0.1849,-0.1876,-0.1882,-0.1888,-0.1912,-0.1942,-0.2045,-0.214,-0.2381,-0.2486,-0.2649,-0.2688,-0.277,-0.2615,-0.2576,-0.2705,-0.2272,-0.2112,-0.2527,-0.2551,-0.2545,-0.2538,-0.1788,-0.1779,-0.1772,-0.1766,0,-0.181,-0.182,-0.1825,-0.1835,-0.1857,-0.1887,-0.1961,-0.2049,-0.2208,-0.2365,-0.253,-0.2588,-0.2586,-0.2342,-0.2266,-0.2187,-0.2248,-0.2122,-0.2687,-0.1842,-0.1749,-0.1771,-0.1791,-0.1702,-0.1708,-0.1713,-0.1716,-0.1719,-0.1771,-0.1766,-0.177,-0.177,-0.1803,-0.1835,-0.1817,-0.1965,-0.2082,-0.2256,-0.2407,-0.2354,-0.223,-0.1891,-0.1791,-0.166,-0.1826,-0.1708,-0.1728,-0.1757,-0.161,-0.1514,-0.1397,-0.1402,-0.1406,-0.1409,-0.1412,0,-0.1709,-0.1702,-0.1704,-0.169,-0.1686,-0.1734,-0.1809,-0.1787,-0.1862,-0.2007,-0.2099,-0.1767,-0.1526,-0.1448,-0.1083,-0.1022,-0.0996,-0.1016,-0.0955,-0.1013,-0.1067,-0.0887,-0.0482,-0.0481,-0.048,-0.0479,0,0,-0.1676,-0.1641,-0.1633,-0.1564,-0.1561,-0.1511,-0.1513,-0.1515,-0.1548,-0.1556,-0.1478,-0.1531,-0.1384,-0.0966,-0.0833,-0.0623,-0.085,-0.057,-0.1288,-0.1276,-0.1331,-0.14,-0.1179,0,0,0,0,0]},{"header":{"parameterUnit":"m.s-1","parameterCategory":2,"la1":30.2991,"la2":30.254,"lo1":-89.0895,"lo2":-89.0444,"dy":0.0017,"dx":0.0017,"nx":28,"ny":28,"refTime":"2025-07-22T21:00:00:Z","depth":"2","parameterNumber":3,"parameterNumberName":"V-component_of_CURRENTS"},"data":[0,0,0,0,0,0,0,0,0,0,0,0,0,0,0,0,0,0,0,0,0,0,0,0,0,0,0,0,0,0,0,0,0,0,0,0,0,0,0,0,0,0,0,0,0,0,0,0,0,0,0,0,0,0,0,0,0,0,-0.0043,-0.0042,0,0.0108,0.011,0.0112,0.0236,0.0237,0.0238,0.0239,0.0684,0.0695,0.0706,0,0,0,0,0,0,0,0,0,0,0,0,0,-0.019,-0.0188,-0.0043,-0.0042,-0.004,0.0107,0.011,0.0113,0.0236,0.0237,0.0238,0.0239,0.0681,0.0694,0.0707,0,0,0,0,0,0,0,0,0,0,0,0,0,-0.0086,-0.0187,-0.0043,0.0035,0.0043,0.0107,0.011,0.0113,0.0236,0.0237,0.0239,0.024,0.0676,0.0692,0.0709,0.0787,0,0,0.076,0.0767,0,0,0,0,0,0,0,0,-0.0093,-0.008,0.0022,0.003,0.0039,0.015,0.0221,0.0351,0.0236,0.0169,0.0239,0.024,0.0529,0.0557,0.0586,0.0808,0.0827,0.0761,0.0771,0.0778,0.0783,0,0,0,0,0,0,0,-0.01,-0.0086,0.0022,0.0023,0.0034,0.0074,0.0091,0.0246,0.035,0.0175,0.0183,0.019,0.0536,0.057,0.0599,0.0834,0.0761,0.0776,0.0786,0.0792,0.1119,0.1118,0,0,0,0,0,0,-0.0132,-0.0093,0.0017,0.0026,-0.0031,0.0075,0.0094,0.0117,0.0342,0.0373,0.0189,0.0195,0.0541,0.0579,0.0615,0.0697,0.0778,0.0794,0.0803,0.112,0.1119,0.1117,0,0,0,0,0,0,-0.0136,-0.0123,0.0011,-0.0035,-0.0016,0.0076,0.0102,0.012,0.0158,0.0348,0.0387,0.0208,0.0543,0.0592,0.0727,0.0717,0.0801,0.0817,0.1122,0.112,0.1118,0.0878,0,0,0,0,0,0,-0.014,-0.0125,-0.0115,-0.0037,-0.0015,0.0046,0.01,0.0121,0.0158,0.0168,0.0378,0.042,0.0548,0.0701,0.0744,0.0741,0.083,0.1123,0.1121,0.1118,0.0888,0.0868,0.0852,0,0,0,0,0,-0.0146,-0.0132,-0.0115,-0.0102,-0.0005,0.0045,0.0061,0.0133,0.0157,0.0172,0.0291,0.0413,0.0716,0.0713,0.0764,0.0766,0.1125,0.1121,0.1119,0.0896,0.0872,0.0852,0,0,0,0,0,0,-0.0179,-0.0116,-0.0096,-0.006,-0.0019,0.0064,0.0084,0.0121,0.0222,0.0243,0.0411,0.0461,0.0584,0.07,0.0692,0.0849,0.0936,0.0943,0.075,0.0729,0.0711,0.0682,0.0843,0,0,0,0,0,-0.0191,-0.0166,-0.0108,-0.0082,-0.0067,0.0001,0.003,0.0075,0.0165,0.0209,0.0348,0.0489,0.0609,0.0684,0.083,0.0918,0.1011,0.0947,0.0929,0.0912,0.0921,0.1008,0.0997,0.1107,0.1107,0.1108,0,0,-0.0198,-0.0162,-0.0146,-0.009,-0.005,-0.0029,0.0024,0.0063,0.0083,0.025,0.0339,0.0457,0.0622,0.0715,0.0778,0.081,0.0924,0.0909,0.0893,0.0912,0.1003,0.0993,0.0983,0.1105,0.1106,0.1106,0,0,-0.0206,-0.0172,-0.0159,-0.0133,-0.0088,-0.0049,-0.0048,0.0031,0.0069,0.0147,0.0262,0.0339,0.0553,0.0629,0.0701,0.067,0.0837,0.0735,0.0615,0.0696,0.0688,0.0682,0.075,0.0752,0.0709,0.0708,0.0708,0,-0.0221,-0.0189,-0.0149,-0.0137,-0.0121,-0.0069,-0.0059,-0.0022,0.0092,0.0121,0.0156,0.0379,0.0498,0.0581,0.0549,0.0629,0.0714,0.0676,0.067,0.0666,0.0664,0.0736,0.0741,0.0696,0.0698,0.0699,0.07,0,-0.0218,-0.02,-0.0195,-0.0164,-0.0146,-0.0127,-0.0088,-0.0057,-0.0018,0.0028,0.0119,0.0238,0.0365,0.0391,0.0461,0.0501,0.0578,0.0643,0.0714,0.0638,0.0719,0.0729,0.0679,0.0683,0.0687,0.069,0,0,-0.0232,-0.0199,-0.0198,-0.0197,-0.0158,-0.0144,-0.0132,-0.0098,-0.0092,-0.0014,0.0014,0.0121,0.0174,0.0255,0.0342,0.0377,0.0387,0.0483,0.0493,0.053,0.0576,0.0548,0.0558,0.0464,0.0466,0.0466,0.0625,0,-0.0242,-0.0235,-0.021,-0.0213,-0.0209,-0.0178,-0.0175,-0.0144,-0.0107,-0.0064,0.0003,0.0082,0.0126,0.0169,0.0206,0.0387,0.041,0.0339,0.0665,0.0674,0.0643,0.0567,0.0569,0.0705,0.0636,0.0638,0.0639,0,-0.0251,-0.0242,-0.0246,-0.0244,-0.0242,-0.0238,-0.0232,-0.0218,-0.0169,-0.0141,-0.0087,-0.0001,0.0068,0.0106,0.031,0.0277,0.0395,0.0498,0.0509,0.0582,0.0665,0.0782,0.0727,0.0657,0.0656,0.0654,0.0653,0,-0.0288,-0.0275,-0.0283,-0.0279,-0.0265,-0.0268,-0.0261,-0.0235,-0.0235,-0.0181,-0.0162,-0.0053,0.0015,0.0172,0.0326,0.0356,0.0544,0.0629,0.0704,0.0705,0.0821,0.0828,0.0742,0.0742,0.0742,0.0741,0.0741,0,-0.0311,-0.0318,-0.0302,-0.0305,-0.0326,-0.0305,-0.0324,-0.0308,-0.0285,-0.0287,-0.02,-0.0169,0.0037,0.0158,0.0318,0.0514,0.0541,0.0675,0.0738,0.0732,0.073,0.0797,0.0801,0.0747,0.0746,0.0745,0.0744,0,-0.0347,-0.0338,-0.0349,-0.034,-0.0344,-0.0358,-0.037,-0.0389,-0.0357,-0.035,-0.0336,-0.0224,-0.0082,0.0081,0.0335,0.05,0.069,0.0738,0.069,0.0742,0.0815,0.0806,0.0912,0.0912,0.0912,0.0913,0.0913,0,-0.0365,-0.0372,-0.0379,-0.0402,-0.0397,-0.0416,-0.0442,-0.0429,-0.0444,-0.0389,-0.0385,-0.0275,-0.0188,0.0136,0.0416,0.068,0.0627,0.0821,0.0861,0.0778,0.0831,0.0821,0.0811,0.0929,0.0929,0.0929,0.0929,0,-0.0393,-0.0396,-0.0409,-0.045,-0.0481,-0.0514,-0.0534,-0.0554,-0.0539,-0.0517,-0.0465,-0.0383,-0.0092,0.0209,0.0504,0.0656,0.0786,0.0835,0.0792,0.0851,0.0798,0.0847,0.0838,0.0931,0.0931,0.0931,0.0931,0.0931,-0.0427,-0.0442,-0.0468,-0.0512,-0.0554,-0.0596,-0.062,-0.0633,-0.0642,-0.0565,-0.0486,-0.0266,0.0023,0.0521,0.0643,0.0784,0.0852,0.0937,0.0936,0.0935,0.0874,0.0821,0.0947,0.0947,0.0947,0.0947,0.0947,0,-0.0476,-0.0491,-0.0531,-0.0583,-0.0648,-0.0654,-0.0682,-0.0697,-0.0698,-0.0503,-0.0399,-0.0061,0.0302,0.0502,0.0801,0.0978,0.0971,0.0903,0.0895,0.0896,0.0896,0.083,0.0893,0.0893,0.0892,0.0891,0,0,-0.0507,-0.0547,-0.0561,-0.0665,-0.0714,-0.0793,-0.0813,-0.0794,-0.0649,-0.0504,-0.0242,0.0181,0.0476,0.0669,0.0788,0.0843,0.0815,0.0813,0.0862,0.0842,0.0838,0.094,0.0843,0,0,0,0,0]}],[{"header":{"parameterUnit":"m.s-1","parameterCategory":2,"la1":30.2991,"la2":30.254,"lo1":-89.0895,"lo2":-89.0444,"dy":0.0017,"dx":0.0017,"nx":28,"ny":28,"refTime":"2025-07-22T21:00:00:Z","depth":"4","parameterNumber":2,"parameterNumberName":"U-component_of_CURRENTS"},"data":[0,0,0,0,0,0,0,0,0,0,0,0,0,0,0,0,0,0,0,0,0,0,0,0,0,0,0,0,0,0,0,0,0,0,0,0,0,0,0,0,0,0,0,0,0,0,0,0,0,0,0,0,0,0,0,0,0,0,-0.1457,-0.1458,0,-0.1509,-0.1509,-0.1509,-0.1525,-0.1525,-0.1525,-0.1525,-0.1574,-0.1575,-0.1576,0,0,0,0,0,0,0,0,0,0,0,0,0,-0.1391,-0.1392,-0.1457,-0.1458,-0.1459,-0.1509,-0.1509,-0.1509,-0.1525,-0.1525,-0.1525,-0.1525,-0.1573,-0.1575,-0.1576,0,0,0,0,0,0,0,0,0,0,0,0,0,-0.1425,-0.1392,-0.1456,-0.1476,-0.1478,-0.1509,-0.1509,-0.1509,-0.1525,-0.1525,-0.1525,-0.1525,-0.1573,-0.1574,-0.1576,-0.1583,0,0,-0.1581,-0.1582,0,0,0,0,0,0,0,0,-0.1423,-0.1427,-0.1472,-0.1474,-0.1477,-0.1514,-0.1504,-0.1535,-0.1525,-0.1502,-0.1525,-0.1525,-0.1556,-0.1559,-0.1562,-0.1585,-0.1587,-0.1582,-0.1583,-0.1583,-0.1584,0,0,0,0,0,0,0,-0.142,-0.1425,-0.1473,-0.1473,-0.1476,-0.1489,-0.1493,-0.151,-0.1524,-0.1504,-0.1507,-0.1519,-0.1557,-0.1561,-0.1564,-0.1588,-0.1582,-0.1583,-0.1584,-0.1585,-0.1648,-0.1649,0,0,0,0,0,0,-0.1422,-0.1422,-0.1471,-0.1475,-0.1455,-0.149,-0.1495,-0.1499,-0.1524,-0.1529,-0.1519,-0.152,-0.1558,-0.1562,-0.1566,-0.1621,-0.1583,-0.1585,-0.1586,-0.1648,-0.1648,-0.1649,0,0,0,0,0,0,-0.142,-0.1425,-0.1469,-0.1454,-0.1461,-0.1492,-0.1495,-0.15,-0.1527,-0.1536,-0.1541,-0.1545,-0.1558,-0.1563,-0.1589,-0.1621,-0.1586,-0.1587,-0.1647,-0.1648,-0.1649,-0.1702,0,0,0,0,0,0,-0.1417,-0.1424,-0.1438,-0.1454,-0.1462,-0.1495,-0.1496,-0.1501,-0.1535,-0.1537,-0.156,-0.1563,-0.1558,-0.1586,-0.1591,-0.1623,-0.1589,-0.1646,-0.1647,-0.1648,-0.1699,-0.1705,-0.1709,0,0,0,0,0,-0.1415,-0.1431,-0.1438,-0.1445,-0.1476,-0.1497,-0.1502,-0.1521,-0.1536,-0.1546,-0.156,-0.1563,-0.1597,-0.1588,-0.1593,-0.1627,-0.1646,-0.1647,-0.1648,-0.1697,-0.1704,-0.1709,0,0,0,0,0,0,-0.1412,-0.1435,-0.1443,-0.1466,-0.1485,-0.1501,-0.1524,-0.1537,-0.1557,-0.1568,-0.1572,-0.1576,-0.1609,-0.1607,-0.1598,-0.1646,-0.1622,-0.1624,-0.1657,-0.1663,-0.1668,-0.1665,-0.159,0,0,0,0,0,-0.1418,-0.1436,-0.1455,-0.1477,-0.1489,-0.1512,-0.153,-0.1542,-0.156,-0.157,-0.1585,-0.16,-0.1616,-0.1631,-0.1638,-0.167,-0.1646,-0.1693,-0.1698,-0.1702,-0.1701,-0.1686,-0.1689,-0.1654,-0.1654,-0.1654,0,0,-0.1426,-0.1442,-0.1454,-0.1479,-0.1498,-0.1523,-0.1522,-0.1555,-0.1583,-0.1573,-0.1617,-0.1619,-0.1626,-0.1654,-0.167,-0.1661,-0.1699,-0.1704,-0.1708,-0.1704,-0.1688,-0.1691,-0.1694,-0.1655,-0.1655,-0.1654,0,0,-0.1446,-0.1464,-0.1484,-0.1502,-0.1537,-0.1549,-0.1564,-0.159,-0.161,-0.1644,-0.1644,-0.1661,-0.1692,-0.1695,-0.1704,-0.174,-0.1721,-0.1752,-0.1783,-0.1769,-0.1772,-0.1774,-0.1743,-0.1742,-0.1759,-0.176,-0.176,0,-0.1457,-0.148,-0.1494,-0.1519,-0.1542,-0.1565,-0.1591,-0.1617,-0.1648,-0.1663,-0.1665,-0.1701,-0.171,-0.1739,-0.1752,-0.1754,-0.1734,-0.1764,-0.1775,-0.1777,-0.1778,-0.1746,-0.1744,-0.1762,-0.1762,-0.1762,-0.1761,0,-0.1481,-0.1512,-0.1529,-0.1565,-0.1589,-0.1617,-0.1649,-0.1677,-0.1705,-0.1721,-0.1756,-0.1759,-0.1772,-0.1788,-0.1787,-0.1809,-0.1788,-0.178,-0.1761,-0.1785,-0.175,-0.1747,-0.1766,-0.1765,-0.1764,-0.1764,0,0,-0.1468,-0.1532,-0.1541,-0.1567,-0.1615,-0.1634,-0.1685,-0.1721,-0.1749,-0.1781,-0.1803,-0.1839,-0.1832,-0.1839,-0.1839,-0.184,-0.1835,-0.1822,-0.182,-0.1792,-0.1793,-0.1676,-0.1661,-0.1833,-0.1833,-0.1832,-0.1763,0,-0.1483,-0.1537,-0.1564,-0.1621,-0.1649,-0.1683,-0.1723,-0.1762,-0.1788,-0.1812,-0.1829,-0.1844,-0.1856,-0.1856,-0.1864,-0.1836,-0.1831,-0.1854,-0.1773,-0.177,-0.1664,-0.1655,-0.1832,-0.1761,-0.176,-0.1759,-0.1759,0,-0.1488,-0.1527,-0.1584,-0.1646,-0.1661,-0.1697,-0.1749,-0.1784,-0.1823,-0.1839,-0.1859,-0.1859,-0.187,-0.1867,-0.1846,-0.1861,-0.1833,-0.1814,-0.181,-0.1679,-0.1647,-0.1732,-0.1753,-0.1754,-0.1754,-0.1754,-0.1755,0,-0.1461,-0.1536,-0.1583,-0.1607,-0.168,-0.1711,-0.1744,-0.1792,-0.181,-0.1841,-0.1836,-0.1862,-0.1845,-0.1839,-0.181,-0.1824,-0.1769,-0.1774,-0.1644,-0.1635,-0.174,-0.1739,-0.1752,-0.1752,-0.1752,-0.1752,-0.1752,0,-0.1449,-0.1491,-0.1579,-0.1605,-0.1651,-0.1703,-0.1742,-0.1776,-0.1805,-0.1792,-0.1838,-0.1806,-0.1836,-0.1809,-0.1799,-0.17,-0.1755,-0.1635,-0.1606,-0.1763,-0.1765,-0.1738,-0.1737,-0.1749,-0.175,-0.175,-0.1751,0,-0.1409,-0.1471,-0.153,-0.1618,-0.1641,-0.1673,-0.1726,-0.1737,-0.1775,-0.175,-0.1749,-0.1755,-0.1696,-0.1717,-0.1681,-0.1647,-0.1592,-0.1548,-0.1703,-0.1686,-0.1471,-0.1474,-0.1379,-0.1374,-0.137,-0.1367,-0.1364,0,-0.1391,-0.1422,-0.1526,-0.155,-0.1591,-0.1641,-0.1657,-0.1712,-0.1699,-0.1687,-0.1645,-0.161,-0.1598,-0.1455,-0.1501,-0.1462,-0.1457,-0.1431,-0.1465,-0.145,-0.1431,-0.1441,-0.1449,-0.1357,-0.1356,-0.1355,-0.1354,0,-0.1352,-0.1404,-0.1448,-0.1497,-0.1529,-0.1551,-0.1568,-0.1548,-0.1564,-0.1614,-0.1486,-0.1438,-0.1363,-0.1342,-0.1323,-0.1305,-0.1453,-0.1388,-0.1397,-0.1429,-0.1423,-0.1411,-0.1424,-0.134,-0.1342,-0.1343,-0.1344,0,-0.1318,-0.1335,-0.1392,-0.1416,-0.1458,-0.1429,-0.1457,-0.1409,-0.14,-0.1384,-0.1331,-0.13,-0.1317,-0.1255,-0.1236,-0.1209,-0.1196,-0.1184,-0.1204,-0.122,-0.1205,-0.1175,-0.0975,0,0,0,0,0,-0.1273,-0.1271,-0.1296,-0.131,-0.1346,-0.1356,-0.1375,-0.1395,-0.1406,-0.1276,-0.1298,-0.1216,-0.1141,-0.1144,-0.1081,-0.1183,-0.1225,-0.1109,-0.1229,-0.1262,-0.1278,-0.1278,0,0,0,0,0,0,-0.124,-0.1266,-0.1262,-0.1208,-0.1196,-0.1202,-0.1209,-0.1219,-0.1153,-0.1173,-0.1138,-0.1158,-0.1114,-0.1153,-0.1059,-0.1062,-0.1117,-0.1113,-0.111,-0.1253,-0.1268,-0.1281,-0.1286,0,0,0,0,0]},{"header":{"parameterUnit":"m.s-1","parameterCategory":2,"la1":30.2991,"la2":30.254,"lo1":-89.0895,"lo2":-89.0444,"dy":0.0017,"dx":0.0017,"nx":28,"ny":28,"refTime":"2025-07-22T21:00:00:Z","depth":"4","parameterNumber":3,"parameterNumberName":"V-component_of_CURRENTS"},"data":[0,0,0,0,0,0,0,0,0,0,0,0,0,0,0,0,0,0,0,0,0,0,0,0,0,0,0,0,0,0,0,0,0,0,0,0,0,0,0,0,0,0,0,0,0,0,0,0,0,0,0,0,0,0,0,0,0,0,-0.0079,-0.0079,0,-0.0034,-0.0033,-0.0033,-0.0002,-0.0001,-0.0001,-0.0001,0.0043,0.0044,0.0045,0,0,0,0,0,0,0,0,0,0,0,0,0,-0.0131,-0.013,-0.008,-0.0079,-0.0078,-0.0034,-0.0033,-0.0032,-0.0002,-0.0001,-0.0001,-0.0001,0.0043,0.0044,0.0045,0,0,0,0,0,0,0,0,0,0,0,0,0,-0.01,-0.013,-0.008,-0.0057,-0.0055,-0.0034,-0.0033,-0.0032,-0.0002,-0.0001,-0.0001,-0.0,0.0043,0.0044,0.0045,0.0046,0,0,0.005,0.005,0,0,0,0,0,0,0,0,-0.0102,-0.0098,-0.0061,-0.0059,-0.0056,-0.0022,-0.0035,-0.0006,-0.0002,-0.0022,-0.0001,-0.0,0.0021,0.0024,0.0031,0.0048,0.005,0.005,0.0051,0.0051,0.0052,0,0,0,0,0,0,0,-0.0104,-0.01,-0.0062,-0.006,-0.0057,-0.0046,-0.0041,-0.0029,-0.0004,-0.0021,-0.0018,-0.0012,0.0023,0.003,0.0033,0.005,0.005,0.0051,0.0052,0.0052,0.008,0.008,0,0,0,0,0,0,-0.0109,-0.0102,-0.0063,-0.006,-0.0077,-0.0045,-0.004,-0.0034,-0.0004,0.0001,-0.0013,-0.0011,0.0027,0.0031,0.0034,0.0057,0.0051,0.0053,0.0053,0.008,0.008,0.008,0,0,0,0,0,0,-0.0111,-0.0106,-0.0065,-0.008,-0.0074,-0.0045,-0.0038,-0.0033,-0.0024,0.0002,0.0007,-0.0008,0.0028,0.0032,0.0039,0.0058,0.0053,0.0054,0.008,0.008,0.008,0.0089,0,0,0,0,0,0,-0.0112,-0.0107,-0.0107,-0.008,-0.0073,-0.0058,-0.0038,-0.0033,-0.0021,-0.0018,0.0007,0.0012,0.0029,0.0037,0.0041,0.006,0.0055,0.008,0.008,0.008,0.0088,0.0089,0.0089,0,0,0,0,0,-0.0114,-0.0115,-0.0107,-0.0103,-0.0073,-0.0058,-0.0054,-0.0032,-0.0021,-0.0022,-0.0006,0.0011,0.0039,0.0038,0.0042,0.0062,0.008,0.008,0.008,0.0088,0.0089,0.0089,0,0,0,0,0,0,-0.0136,-0.0111,-0.0102,-0.0095,-0.008,-0.0053,-0.0051,-0.0035,-0.0022,-0.002,0.0005,0.001,0.0025,0.0034,0.0032,0.0067,0.0065,0.0065,0.007,0.007,0.007,0.0072,0.0057,0,0,0,0,0,-0.0142,-0.0138,-0.0113,-0.0109,-0.0103,-0.0078,-0.0069,-0.0054,-0.0038,-0.0031,-0.0013,0.0006,0.0027,0.004,0.0051,0.0068,0.0098,0.0083,0.0084,0.0084,0.0087,0.0147,0.0154,0.0079,0.0079,0.0079,0,0,-0.015,-0.0136,-0.0133,-0.0114,-0.0101,-0.0091,-0.0072,-0.0062,-0.0049,-0.0029,-0.0015,0.0002,0.0028,0.0048,0.0057,0.0061,0.012,0.0084,0.0084,0.0087,0.0148,0.0155,0.0162,0.0079,0.0079,0.0079,0,0,-0.0161,-0.0152,-0.0151,-0.014,-0.0122,-0.0106,-0.0104,-0.008,-0.0065,-0.0053,-0.0029,-0.0001,0.0016,0.0053,0.0072,0.008,0.0114,0.0078,0.0092,0.0151,0.0158,0.0165,0.0213,0.0224,0.0086,0.0086,0.0086,0,-0.0171,-0.0162,-0.0149,-0.0144,-0.0135,-0.0113,-0.0107,-0.009,-0.0067,-0.0053,-0.0051,0.0002,0.0027,0.0076,0.0083,0.0085,0.0113,0.0092,0.0154,0.0161,0.0168,0.0216,0.0228,0.0087,0.0087,0.0087,0.0087,0,-0.0177,-0.0171,-0.0171,-0.0156,-0.0148,-0.0141,-0.0116,-0.0108,-0.009,-0.0065,-0.0028,0.0009,0.0044,0.0063,0.0078,0.0139,0.0142,0.0144,0.0157,0.0176,0.0225,0.0238,0.0087,0.0087,0.0087,0.0087,0,0,-0.0191,-0.0177,-0.0177,-0.0174,-0.0152,-0.0148,-0.013,-0.0103,-0.0094,-0.0056,-0.0031,0.0031,0.0051,0.0074,0.0106,0.0166,0.0246,0.0174,0.0177,0.023,0.0369,0.0349,0.0361,0.0258,0.026,0.0261,0.0385,0,-0.0195,-0.0192,-0.0181,-0.0179,-0.0175,-0.0155,-0.0146,-0.0122,-0.0098,-0.0075,-0.0008,0.0018,0.0056,0.007,0.0141,0.0201,0.0278,0.0212,0.0335,0.0339,0.0327,0.0375,0.0268,0.0394,0.0397,0.0399,0.0401,0,-0.0201,-0.0196,-0.0195,-0.0192,-0.019,-0.0189,-0.0175,-0.0163,-0.012,-0.0103,-0.0049,-0.0014,0.0073,0.0096,0.0251,0.0202,0.0292,0.0355,0.0361,0.0349,0.0343,0.037,0.0424,0.0422,0.042,0.0419,0.0417,0,-0.0215,-0.0208,-0.0209,-0.0206,-0.0198,-0.0199,-0.0195,-0.0169,-0.0169,-0.0121,-0.0118,-0.0016,0.0023,0.015,0.0283,0.0265,0.0454,0.0444,0.0525,0.0524,0.0501,0.0492,0.0583,0.0583,0.0583,0.0583,0.0582,0,-0.0219,-0.0223,-0.022,-0.0221,-0.0237,-0.0222,-0.0238,-0.0222,-0.0207,-0.0202,-0.0135,-0.0102,0.0038,0.0154,0.0284,0.0442,0.0465,0.0542,0.0562,0.0499,0.0489,0.051,0.05,0.0587,0.0586,0.0585,0.0584,0,-0.0233,-0.0229,-0.0238,-0.0238,-0.0245,-0.0258,-0.0282,-0.0297,-0.0273,-0.0264,-0.0253,-0.0163,-0.0012,0.0147,0.0352,0.0431,0.0591,0.0655,0.0581,0.0592,0.0619,0.0608,0.0735,0.0736,0.0736,0.0737,0.0737,0,-0.0241,-0.0243,-0.0261,-0.0285,-0.029,-0.0313,-0.034,-0.0331,-0.0343,-0.0289,-0.0285,-0.0155,-0.0068,0.0213,0.0369,0.0616,0.0652,0.0715,0.0669,0.0632,0.0639,0.0627,0.0615,0.0738,0.0738,0.0738,0.0738,0,-0.0256,-0.0265,-0.0279,-0.0326,-0.036,-0.0396,-0.0422,-0.0434,-0.0412,-0.0391,-0.0285,-0.0147,0.0022,0.022,0.0415,0.0591,0.0649,0.072,0.0719,0.0676,0.0636,0.064,0.0628,0.074,0.0739,0.0739,0.0739,0,-0.0282,-0.0301,-0.0331,-0.0373,-0.0423,-0.0462,-0.0466,-0.0452,-0.0446,-0.0369,-0.0324,-0.0132,-0.002,0.021,0.0394,0.0554,0.0578,0.0598,0.0604,0.0604,0.0518,0.0444,0.0523,0,0,0,0,0,-0.031,-0.034,-0.0383,-0.0432,-0.0481,-0.0507,-0.0523,-0.0517,-0.0484,-0.0407,-0.036,-0.0183,0.0076,0.0184,0.0346,0.0373,0.058,0.056,0.06,0.0748,0.0746,0.0664,0,0,0,0,0,0,-0.0339,-0.0375,-0.0391,-0.0474,-0.052,-0.0572,-0.058,-0.0552,-0.0494,-0.0427,-0.0274,-0.0183,0.0082,-0.0009,0.0338,0.0383,0.0419,0.0691,0.0693,0.0749,0.0747,0.0746,0.0661,0,0,0,0,0]}]]